�������l�o���
Date,Time,MP-1(��Sv/h),MP-2(��Sv/h),MP-3(��Sv/h),MP-4(��Sv/h),MP-5(��Sv/h),MP-6(��Sv/h),MP-7(��Sv/h),����,����(m/s),���J
2024/02/15,00:00,0.148,0.132,0.210,0.198,0.208,0.118,0.077,���쐼,1.4,��
2024/02/15,00:10,0.148,0.133,0.210,0.200,0.206,0.118,0.076,�쐼,1.6,��
2024/02/15,00:20,0.148,0.134,0.210,0.200,0.207,0.118,0.077,���쐼,3.6,��
2024/02/15,00:30,0.147,0.132,0.210,0.199,0.206,0.118,0.077,��,4.4,��
2024/02/15,00:40,0.149,0.133,0.210,0.201,0.207,0.118,0.077,���쐼,4.4,��
2024/02/15,00:50,0.148,0.132,0.211,0.200,0.207,0.118,0.076,���k��,4.5,��
2024/02/15,01:00,0.148,0.133,0.211,0.199,0.207,0.118,0.077,��,5.7,��
2024/02/15,01:10,0.147,0.133,0.210,0.200,0.208,0.117,0.075,��,6.2,��
2024/02/15,01:20,0.149,0.133,0.211,0.199,0.207,0.119,0.076,��,4.0,��
2024/02/15,01:30,0.148,0.133,0.209,0.199,0.207,0.117,0.076,���쐼,4.0,��
2024/02/15,01:40,0.149,0.131,0.210,0.200,0.207,0.118,0.076,���쐼,3.3,��
2024/02/15,01:50,0.148,0.132,0.209,0.199,0.207,0.118,0.077,��,2.7,��
2024/02/15,02:00,0.148,0.133,0.211,0.199,0.207,0.119,0.077,�쐼,1.5,��
2024/02/15,02:10,0.149,0.132,0.210,0.199,0.206,0.118,0.076,��,1.3,��
2024/02/15,02:20,0.147,0.134,0.211,0.200,0.207,0.119,0.076,��쓌,1.7,��
2024/02/15,02:30,0.148,0.133,0.211,0.199,0.207,0.119,0.076,��,0.9,��
2024/02/15,02:40,0.149,0.132,0.211,0.201,0.206,0.118,0.077,���쓌,1.5,��
2024/02/15,02:50,0.148,0.132,0.210,0.199,0.207,0.119,0.077,��쓌,2.1,��
2024/02/15,03:00,0.148,0.134,0.211,0.200,0.206,0.118,0.076,�쐼,3.4,��
2024/02/15,03:10,0.148,0.133,0.211,0.201,0.206,0.118,0.077,�쐼,4.1,��
2024/02/15,03:20,0.148,0.133,0.211,0.199,0.208,0.119,0.076,��쐼,2.9,��
2024/02/15,03:30,0.148,0.133,0.209,0.199,0.206,0.119,0.076,��쐼,3.1,��
2024/02/15,03:40,0.148,0.134,0.210,0.200,0.206,0.119,0.076,��,2.2,��
2024/02/15,03:50,0.149,0.133,0.211,0.200,0.206,0.119,0.077,��,2.8,��
2024/02/15,04:00,0.148,0.134,0.211,0.198,0.206,0.119,0.076,��쓌,3.9,��
2024/02/15,04:10,0.148,0.133,0.211,0.200,0.207,0.118,0.076,��쓌,4.9,��
2024/02/15,04:20,0.149,0.133,0.210,0.200,0.206,0.118,0.077,��쓌,4.4,��
2024/02/15,04:30,0.148,0.133,0.211,0.200,0.206,0.119,0.076,��쓌,4.1,��
2024/02/15,04:40,0.149,0.134,0.210,0.199,0.206,0.119,0.077,��,4.4,��
2024/02/15,04:50,0.148,0.133,0.210,0.200,0.206,0.119,0.077,��,4.9,��
2024/02/15,05:00,0.148,0.133,0.210,0.199,0.206,0.118,0.077,��,6.2,��
2024/02/15,05:10,0.148,0.133,0.211,0.200,0.208,0.118,0.076,��,7.5,��
2024/02/15,05:20,0.149,0.133,0.211,0.200,0.207,0.119,0.077,��쐼,7.0,��
2024/02/15,05:30,0.148,0.133,0.211,0.200,0.207,0.119,0.077,��쐼,8.3,��
2024/02/15,05:40,0.149,0.133,0.211,0.200,0.207,0.119,0.077,��쐼,8.5,��
2024/02/15,05:50,0.148,0.134,0.212,0.200,0.206,0.119,0.076,��쐼,7.5,��
2024/02/15,06:00,0.148,0.133,0.211,0.199,0.208,0.118,0.077,��쐼,6.9,��
2024/02/15,06:10,0.148,0.134,0.210,0.200,0.209,0.118,0.077,��쐼,6.9,��
2024/02/15,06:20,0.148,0.133,0.210,0.201,0.208,0.118,0.076,��쐼,7.1,��
2024/02/15,06:30,0.149,0.133,0.210,0.200,0.208,0.119,0.076,��쐼,7.4,��
2024/02/15,06:40,0.149,0.133,0.211,0.200,0.207,0.119,0.078,��쐼,7.9,��
2024/02/15,06:50,0.148,0.133,0.211,0.200,0.207,0.119,0.077,��쐼,7.8,��
2024/02/15,07:00,0.148,0.133,0.210,0.200,0.208,0.118,0.077,��,7.0,��
2024/02/15,07:10,0.149,0.133,0.211,0.199,0.206,0.119,0.077,��쐼,7.6,��
2024/02/15,07:20,0.148,0.133,0.211,0.200,0.206,0.118,0.077,��쐼,7.5,��
2024/02/15,07:30,0.149,0.134,0.211,0.200,0.208,0.119,0.076,��,7.9,��
2024/02/15,07:40,0.149,0.134,0.210,0.199,0.206,0.118,0.077,��,7.8,��
2024/02/15,07:50,0.148,0.133,0.209,0.200,0.208,0.119,0.076,��,8.2,��
2024/02/15,08:00,0.149,0.133,0.211,0.200,0.207,0.119,0.076,��,7.2,��
2024/02/15,08:10,0.148,0.134,0.211,0.201,0.208,0.119,0.077,��,7.4,��
2024/02/15,08:20,0.147,0.133,0.211,0.199,0.208,0.118,0.077,��,7.7,��
2024/02/15,08:30,0.148,0.133,0.210,0.199,0.206,0.119,0.076,��쓌,5.9,��
2024/02/15,08:40,0.148,0.133,0.211,0.199,0.208,0.119,0.076,��쓌,6.1,��
2024/02/15,08:50,0.149,0.132,0.210,0.199,0.207,0.119,0.077,��쓌,6.2,��
2024/02/15,09:00,0.149,0.133,0.211,0.200,0.208,0.119,0.077,��,5.5,��
2024/02/15,09:10,0.149,0.133,0.211,0.199,0.206,0.119,0.077,��쓌,5.8,��
2024/02/15,09:20,0.148,0.132,0.210,0.201,0.209,0.119,0.077,��쓌,6.2,��
2024/02/15,09:30,0.147,0.133,0.211,0.200,0.205,0.118,0.076,��쓌,6.1,��
2024/02/15,09:40,0.149,0.132,0.210,0.200,0.207,0.119,0.077,��쓌,5.5,��
2024/02/15,09:50,0.148,0.133,0.211,0.198,0.206,0.119,0.077,��쓌,7.0,��
2024/02/15,10:00,0.148,0.132,0.210,0.200,0.208,0.118,0.078,��,6.7,��
2024/02/15,10:10,0.148,0.133,0.211,0.200,0.206,0.119,0.077,��쓌,5.8,��
2024/02/15,10:20,0.148,0.132,0.211,0.200,0.207,0.118,0.076,��쓌,7.8,��
2024/02/15,10:30,0.147,0.133,0.211,0.200,0.206,0.119,0.077,��쓌,7.3,��
2024/02/15,10:40,0.147,0.132,0.209,0.199,0.207,0.118,0.076,��쓌,6.3,��
2024/02/15,10:50,0.148,0.133,0.211,0.201,0.206,0.119,0.077,��,7.3,��
2024/02/15,11:00,0.148,0.134,0.209,0.198,0.205,0.119,0.077,��쓌,7.5,��
2024/02/15,11:10,0.147,0.132,0.211,0.201,0.208,0.118,0.076,��쓌,8.1,��
2024/02/15,11:20,0.148,0.133,0.211,0.199,0.206,0.119,0.077,��쓌,6.8,��
2024/02/15,11:30,0.148,0.132,0.210,0.198,0.205,0.118,0.077,��쓌,7.5,��
2024/02/15,11:40,0.147,0.134,0.211,0.201,0.208,0.119,0.076,��쓌,7.6,��
2024/02/15,11:50,0.148,0.133,0.211,0.199,0.206,0.119,0.077,��쓌,9.0,��
2024/02/15,12:00,0.148,0.133,0.209,0.202,0.207,0.120,0.077,��쓌,8.2,��
2024/02/15,12:10,0.147,0.133,0.212,0.200,0.208,0.120,0.076,��쓌,8.7,��
2024/02/15,12:20,0.148,0.132,0.210,0.199,0.205,0.118,0.077,��쓌,9.5,��
2024/02/15,12:30,0.148,0.132,0.209,0.201,0.207,0.119,0.076,��쓌,9.3,��
2024/02/15,12:40,0.147,0.133,0.211,0.199,0.208,0.118,0.077,��쓌,9.2,��
2024/02/15,12:50,0.148,0.133,0.210,0.199,0.205,0.119,0.077,��,6.8,��
2024/02/15,13:00,0.148,0.132,0.208,0.201,0.208,0.118,0.077,��,5.9,��
2024/02/15,13:10,0.148,0.133,0.210,0.199,0.207,0.118,0.077,��,7.3,��
2024/02/15,13:20,0.147,0.132,0.211,0.198,0.206,0.120,0.076,��,5.8,��
2024/02/15,13:30,0.146,0.134,0.210,0.201,0.204,0.119,0.076,��,5.4,��
2024/02/15,13:40,0.147,0.133,0.209,0.199,0.205,0.119,0.077,��,4.9,��
2024/02/15,13:50,0.149,0.132,0.210,0.197,0.207,0.119,0.077,��,8.7,��
2024/02/15,14:00,0.149,0.132,0.211,0.199,0.207,0.119,0.076,��,10.9,��
2024/02/15,14:10,0.148,0.133,0.209,0.202,0.206,0.119,0.077,��,8.3,��
2024/02/15,14:20,0.146,0.133,0.209,0.198,0.205,0.119,0.077,��쓌,9.2,��
2024/02/15,14:30,0.149,0.131,0.212,0.200,0.207,0.119,0.077,��,8.3,��
2024/02/15,14:40,0.148,0.134,0.210,0.201,0.206,0.119,0.077,��,7.7,��
2024/02/15,14:50,0.149,0.133,0.213,0.200,0.208,0.120,0.077,��,8.8,��
2024/02/15,15:00,0.150,0.134,0.211,0.201,0.209,0.118,0.077,��,7.3,��
2024/02/15,15:10,0.148,0.134,0.212,0.200,0.208,0.120,0.077,��,7.4,��
2024/02/15,15:20,0.150,0.133,0.211,0.201,0.209,0.119,0.078,��,7.2,��
2024/02/15,15:30,0.148,0.134,0.212,0.200,0.207,0.119,0.077,��,6.4,��
2024/02/15,15:40,0.149,0.132,0.211,0.201,0.208,0.119,0.076,��,4.8,��
2024/02/15,15:50,0.147,0.133,0.212,0.199,0.207,0.119,0.077,��,5.1,��
2024/02/15,16:00,0.148,0.133,0.211,0.201,0.208,0.119,0.078,��쓌,9.2,��
2024/02/15,16:10,0.148,0.134,0.212,0.201,0.208,0.118,0.077,��,8.1,��
2024/02/15,16:20,0.148,0.134,0.211,0.200,0.208,0.119,0.076,��,7.8,��
2024/02/15,16:30,0.149,0.133,0.211,0.200,0.207,0.118,0.077,��,7.6,��
2024/02/15,16:40,0.149,0.134,0.211,0.200,0.208,0.120,0.077,��,6.8,��
2024/02/15,16:50,0.149,0.133,0.211,0.200,0.209,0.119,0.077,��쐼,6.8,��
2024/02/15,17:00,0.149,0.133,0.211,0.202,0.208,0.119,0.077,��,6.5,��
2024/02/15,17:10,0.149,0.133,0.212,0.200,0.207,0.119,0.077,��,5.7,��
2024/02/15,17:20,0.149,0.133,0.210,0.202,0.208,0.119,0.077,��,6.8,��
2024/02/15,17:30,0.148,0.133,0.211,0.200,0.206,0.118,0.077,��,7.3,��
2024/02/15,17:40,0.149,0.134,0.212,0.201,0.210,0.119,0.077,��,5.4,��
2024/02/15,17:50,0.148,0.134,0.212,0.201,0.207,0.118,0.077,��,6.5,��
2024/02/15,18:00,0.150,0.133,0.211,0.201,0.209,0.119,0.076,��,7.3,��
2024/02/15,18:10,0.147,0.134,0.212,0.201,0.207,0.118,0.077,��쐼,6.8,��
2024/02/15,18:20,0.149,0.134,0.210,0.201,0.207,0.118,0.076,��쐼,7.3,��
2024/02/15,18:30,0.149,0.133,0.211,0.201,0.207,0.119,0.076,��쐼,6.9,��
2024/02/15,18:40,0.148,0.134,0.210,0.199,0.207,0.119,0.077,��쐼,8.7,��
2024/02/15,18:50,0.149,0.132,0.211,0.200,0.208,0.118,0.077,��쐼,8.2,��
2024/02/15,19:00,0.148,0.132,0.211,0.201,0.206,0.118,0.076,��쐼,10.6,��
2024/02/15,19:10,0.148,0.133,0.211,0.199,0.208,0.118,0.076,��쐼,10.4,��
2024/02/15,19:20,0.147,0.132,0.210,0.200,0.207,0.118,0.076,��쐼,9.5,��
2024/02/15,19:30,0.149,0.133,0.210,0.199,0.207,0.118,0.076,��쐼,10.6,��
2024/02/15,19:40,0.148,0.132,0.211,0.201,0.207,0.119,0.076,��,10.3,��
2024/02/15,19:50,0.148,0.133,0.211,0.200,0.208,0.119,0.077,��,10.9,��
2024/02/15,20:00,0.148,0.133,0.211,0.200,0.207,0.119,0.076,��,11.2,��
2024/02/15,20:10,0.148,0.132,0.211,0.201,0.207,0.118,0.076,��,10.3,��
2024/02/15,20:20,0.149,0.134,0.211,0.199,0.208,0.118,0.076,��,9.5,��
2024/02/15,20:30,0.149,0.133,0.210,0.200,0.206,0.118,0.076,��,9.5,��
2024/02/15,20:40,0.149,0.133,0.211,0.201,0.208,0.118,0.076,��,10.4,��
2024/02/15,20:50,0.147,0.132,0.211,0.199,0.207,0.119,0.076,��쓌,11.2,��
2024/02/15,21:00,0.149,0.132,0.211,0.200,0.209,0.118,0.077,��,10.6,��
2024/02/15,21:10,0.147,0.134,0.211,0.199,0.206,0.119,0.076,��쓌,10.3,��
2024/02/15,21:20,0.149,0.133,0.209,0.200,0.207,0.118,0.076,��쓌,10.0,��
2024/02/15,21:30,0.148,0.133,0.210,0.199,0.207,0.118,0.076,��쓌,9.3,��
2024/02/15,21:40,0.148,0.132,0.212,0.199,0.206,0.119,0.077,��쓌,9.8,��
2024/02/15,21:50,0.148,0.132,0.210,0.200,0.208,0.118,0.076,��쓌,9.5,��
2024/02/15,22:00,0.148,0.133,0.211,0.199,0.206,0.118,0.076,��쓌,9.8,��
2024/02/15,22:10,0.149,0.133,0.211,0.200,0.207,0.118,0.076,��,9.2,��
2024/02/15,22:20,0.148,0.132,0.210,0.200,0.208,0.119,0.077,��,7.3,��
2024/02/15,22:30,0.148,0.133,0.211,0.201,0.207,0.118,0.077,��쐼,5.2,��
2024/02/15,22:40,0.148,0.133,0.211,0.200,0.207,0.119,0.076,�쐼,6.6,��
2024/02/15,22:50,0.148,0.133,0.213,0.200,0.207,0.119,0.076,��쐼,4.6,��
2024/02/15,23:00,0.148,0.134,0.211,0.200,0.208,0.118,0.077,��쐼,5.7,��
2024/02/15,23:10,0.147,0.134,0.211,0.200,0.205,0.118,0.076,�쐼,6.4,��
2024/02/15,23:20,0.148,0.134,0.211,0.201,0.207,0.119,0.077,�쐼,5.1,��
2024/02/15,23:30,0.148,0.133,0.211,0.200,0.206,0.118,0.076,���쐼,5.8,��
2024/02/15,23:40,0.148,0.133,0.212,0.200,0.206,0.119,0.076,��,8.1,��
2024/02/15,23:50,0.148,0.133,0.211,0.199,0.206,0.118,0.076,��,6.1,�L
